Starlink 4497

operational
NORAD ID: 53411 Int'l Des: 2022-097 Owner: SPXS Country: US Constellation: starlink
LEOCIRCULAR

About Starlink 4497

Description loading...

Live Position

Loading 3D Globe...

Upcoming Passes

Altitude History

Altitude vs Time

uPlot chart will show altitude changes over time

Two-Line Element Set

1 53411U 22097Z 25304.35012542 .00000974 00000-0 79308-4 0 9991
2 53411 53.2176 334.7502 0001450 86.1412 273.9746 15.08840886179122
Epoch: Oct 31, 2025 • Age: 29 hours

Current Status

Altitude 545.0 km
Velocity 7.60 km/s
Sub-Earth Point 51.80°N, 164.65°W
Launch Date Aug 10, 2022
Age 3.2 years
Type internet

Technical Details

Classification Payload
Mass 297.00 kg
Dry Mass 275.00 kg
Total Mass 297.00 kg
Length 0.20 m
Diameter 2.80 m
Span 9.00 m
Shape Box + pan
Manufacturer SPXS
Bus Type Starlink
Phase Status In Orbit
Owner/State SPXS/US

Large Constellations

Loading constellations...